Taunton, MA

5:03 PM EDT on March 30, 2017 (GMT -0400)
Taunton Municipal

Weather History for KTAN - December, 2011

Change the Weather History Date:

Thursday, December 29, 2011

  Actual Average Record
Temperature  
Mean Temperature 26 °F -  
Max Temperature 32 °F 39 °F 69 °F (1984)
Min Temperature 21 °F 20 °F 4 °F (1993)
Degree Days  
Heating Degree Days 38    
Moisture  
Dew Point 7 °F    
Average Humidity 42    
Maximum Humidity 58    
Minimum Humidity 28    
Precipitation  
Precipitation 0.00 in - - ()
Sea Level Pressure  
Sea Level Pressure 29.90 in    
Wind  
Wind Speed 9 mph (West)    
Max Wind Speed 16 mph    
Max Gust Speed 25 mph    
Visibility 10 miles    
Events      
Averages and records for this station are not official NWS values.
T = Trace of Precipitation, MM = Missing Value Source: NWS Daily Summary

Daily Weather History Graph

Daily Weather History Graph

Search for Another Location

Airport or City:

Trip Planner

Search our weather history database for the weather conditions in past years. The results will help you decide how hot, cold, wet, or windy it might be!

Date:

Astronomy

Dec. 29, 2011 Rise Set
Actual Time 7:11 AM EST 4:20 PM EST
Civil Twilight 6:39 AM EST 4:52 PM EST
Nautical Twilight 6:04 AM EST 5:27 PM EST
Astronomical Twilight 5:30 AM EST 6:01 PM EST
Moon 9:58 AM EST (12/29) 10:00 PM EST (12/29)
Length of Visible Light 10h 13m
Length of Day
9h 09m
Waxing Crescent, 26% of the Moon is Illuminated
Dec 29
Waxing Crescent
Jan 1
First Quarter
Jan 9
Full
Jan 16
Last Quarter
Jan 23
New

Hourly Weather History & Observations

Time (EST) Temp. Windchill Dew Point Humidity Pressure Visibility Wind Dir Wind Speed Gust Speed Precip Events Conditions
12:52 AM 28.0 °F 19.3 °F 15.1 °F 58% 29.67 in 10.0 mi West 9.2 mph 20.7 mph N/A   Clear
1:52 AM 28.0 °F 16.1 °F 12.0 °F 51% 29.69 in 10.0 mi West 16.1 mph 25.3 mph N/A   Clear
2:52 AM 27.0 °F 15.2 °F 9.0 °F 47% 29.72 in 10.0 mi West 15.0 mph 23.0 mph N/A   Clear
3:52 AM 25.0 °F 13.1 °F 6.1 °F 45% 29.74 in 10.0 mi West 13.8 mph 23.0 mph N/A   Clear
4:52 AM 24.1 °F 15.2 °F 3.9 °F 42% 29.78 in 10.0 mi WNW 8.1 mph 19.6 mph N/A   Clear
5:52 AM 23.0 °F 14.7 °F 3.0 °F 42% 29.81 in 10.0 mi WNW 6.9 mph 17.3 mph N/A   Clear
6:52 AM 21.9 °F 10.4 °F 3.0 °F 44% 29.85 in 10.0 mi WNW 11.5 mph 19.6 mph N/A   Clear
7:52 AM 23.0 °F 13.9 °F 3.9 °F 44% 29.89 in 10.0 mi West 8.1 mph 18.4 mph N/A   Clear
8:52 AM 24.1 °F 15.2 °F 3.9 °F 42% 29.92 in 10.0 mi West 8.1 mph 18.4 mph N/A   Clear
10:52 AM 28.9 °F 20.4 °F 1.0 °F 30% 29.92 in 10.0 mi WNW 9.2 mph 18.4 mph N/A   Clear
11:52 AM 30.0 °F 22.4 °F 1.9 °F 30% 29.91 in 10.0 mi WSW 8.1 mph 16.1 mph N/A   Clear
12:52 PM 30.9 °F 21.7 °F 1.9 °F 29% 29.91 in 10.0 mi West 11.5 mph - N/A   Clear
1:52 PM 32.0 °F 23.6 °F 1.9 °F 28% 29.91 in 10.0 mi SW 10.4 mph - N/A   Clear
2:52 PM 32.0 °F 24.8 °F 3.9 °F 31% 29.92 in 10.0 mi West 8.1 mph 17.3 mph N/A   Clear
3:52 PM 30.9 °F 23.5 °F 3.9 °F 32% 29.95 in 10.0 mi West 8.1 mph - N/A   Clear
5:52 PM 28.9 °F 23.9 °F 5.0 °F 36% 29.98 in 10.0 mi WSW 4.6 mph - N/A   Clear
6:52 PM 26.1 °F 21.9 °F 9.0 °F 49% 29.99 in 10.0 mi SSW 3.5 mph - N/A   Clear
7:52 PM 28.0 °F 21.7 °F 10.0 °F 47% 30.01 in 10.0 mi WSW 5.8 mph - N/A   Mostly Cloudy
8:52 PM 28.9 °F 22.8 °F 12.0 °F 49% 30.01 in 10.0 mi SW 5.8 mph - N/A   Overcast
9:52 PM 28.9 °F 25.2 °F 10.9 °F 47% 30.03 in 10.0 mi West 3.5 mph - N/A   Overcast
10:52 PM 27.0 °F - 12.9 °F 56% 30.05 in 10.0 mi Calm Calm - N/A   Overcast
11:52 PM 28.9 °F - 14.0 °F 54% 30.05 in 10.0 mi Calm Calm - N/A   Overcast